Regional Weather Roundup
Issued by NWS Bismarck, ND

Home | Current Version | Previous Version | Text Only | Print | Product List | Glossary On
Versions: 1 2 3 4 5 6 7 8 9 10 11 12 13 14 15 16 17 18 19 20 21 22 23 24 25 26 27 28 29 30 31 32 33 34 35 36 37 38 39 40 41 42 43 44 45 46 47 48 49 50
000
ASUS43 KBIS 212110
RWRBIS

NWR BROADCAST TEXT
NATIONAL WEATHER SERVICE BISMARCK ND
300 PM CST TUE FEB 21 2017

NOTE: "FAIR" INDICATES FEW OR NO CLOUDS BELOW 12,000 FEET WITH NO
SIGNIFICANT WEATHER AND/OR OBSTRUCTIONS TO VISIBILITY.


CITY           SKY/WX    TMP DP  RH WIND       PRES   REMARKS
WILLISTON      CLOUDY    41  32  70 SW7       29.65S
MINOT          FAIR      46  36  68 SW8       29.63S
MINOT AFB      FAIR      39  35  83 W10       29.62S
BISMARCK       PTSUNNY   50  36  58 CALM      29.67F
DICKINSON      PTSUNNY   51  33  50 N10       29.65F
GARRISON         N/A     44  35  70 CALM      29.65S
HETTINGER ARPT FAIR      63  29  27 W7        29.66F
JAMESTOWN      CLOUDY    46  38  73 SW9       29.67R
CARRINGTON     MOCLDY    41  37  87 W8        29.68S
HAZEN            N/A    N/A N/A N/A SE5       29.67F
MANDAN         MOCLDY    52  37  58 NW3       29.67F
RUGBY            N/A     36  32  87 CALM      29.63F
STANLEY        FAIR      39  39 100 SW8       29.66S
TIOGA          FAIR      39  39 100 W7        29.65F
WATFORD CITY   FAIR      41  36  81 W6        29.65F
$$

CITY           SKY/WX    TMP DP  RH WIND       PRES   REMARKS
GRAND FORKS    PTSUNNY   40  33  76 NW12      29.67R HAZE
GRAND FORKS AF CLOUDY    36  35  98 N5        29.68R FOG
DEVILS LAKE    FAIR      39  33  79 W3        29.66R
FARGO          FAIR      47  39  74 W9        29.66S
CAVALIER       FAIR      34  32  93 E5        29.67S FOG
GRAFTON        FOG       32  32 100 N5        29.70R VSB<1/4
GWINNER        FAIR      55  43  62 W8        29.68S
ROLLA          FAIR      36  36 100 SE6       29.64F
$$

CITY           SKY/WX    TMP DP  RH WIND       PRES   REMARKS
ABERDEEN       FAIR      62  35  36 SW7       29.68F
MOBRIDGE       FAIR      59  38  45 SE9       29.64F
BUFFALO          N/A     68  31  25 W18G25    29.58F
RAPID CITY     FAIR      70  28  21 W28G38    29.68F
GLASGOW        LGT RAIN  46  36  68 NW12      29.63F
SIDNEY         LGT RAIN  46  40  79 S8        29.64F
WOLF POINT     CLOUDY    41  36  82 SW6       29.64F
GLENDIVE       PTSUNNY   50  38  63 NE3       29.65F
MILES CITY     FAIR      59  38  45 SE7       29.60F
BAKER          FAIR      55  35  47 SW5       29.66F
$$

CITY           SKY/WX    TMP DP  RH WIND       PRES   REMARKS
BILLINGS       FAIR      61  23  23 SW26G41   29.60F
GREAT FALLS    CLOUDY    42  36  79 E6        29.61S
REGINA         CLOUDY    34  30  86 N8        29.67R
ESTEVAN        MOSUNNY   37  34  87 SW9       29.62S
$$




USA.gov is the U.S. government's official web portal to all federal, state and local government web resources and services.